Starlink 30088

operational
NORAD ID: 57462 Int'l Des: 2023-107 Owner: SPXS Country: US Constellation: starlink
LEOCIRCULAR

About Starlink 30088

Description loading...

Live Position

Loading 3D Globe...

Upcoming Passes

Altitude History

Altitude vs Time

uPlot chart will show altitude changes over time

Two-Line Element Set

1 57462U 23107F 25352.26311624 .00000398 00000-0 44528-4 0 9996
2 57462 43.0062 61.5061 0001728 272.5274 87.5370 15.02527165132861
Epoch: Dec 18, 2025 • Age: 10 hours

Current Status

Altitude 559.7 km
Velocity 7.59 km/s
Sub-Earth Point 25.49°N, 121.43°E
Launch Date Jul 28, 2023
Age 2.3 years
Type internet

Technical Details

Classification Payload
Mass 730.00 kg
Dry Mass 700.00 kg
Total Mass 730.00 kg
Length 0.30 m
Diameter 4.10 m
Span 29.00 m
Shape Box + pan
Manufacturer SPXS
Bus Type Starlink V2M
Phase Status In Orbit
Owner/State SPXS/US

Large Constellations

Loading constellations...